Time,TemperatureF,DewpointF,PressureIn,WindDirection,WindDirectionDegrees,WindSpeedMPH,WindSpeedGustMPH,Humidity,HourlyPrecipIn,Conditions,Clouds,dailyrainin,SoftwareType,DateUTC
2013-05-07 00:00:00,57.0,52.9,29.90,SSW,211,0.0,0.0,86,0.00,,,0.00,Wunderground v.1.15,2013-05-07 04:00:00,
2013-05-07 00:05:00,57.0,52.5,29.90,SSW,211,0.0,0.0,85,0.00,,,0.00,Wunderground v.1.15,2013-05-07 04:05:00,
2013-05-07 00:10:00,57.0,52.5,29.90,SSW,211,0.0,0.0,85,0.00,,,0.00,Wunderground v.1.15,2013-05-07 04:10:00,
2013-05-07 00:15:00,56.9,52.4,29.89,SSW,211,0.0,0.0,85,0.00,,,0.00,Wunderground v.1.15,2013-05-07 04:15:00,
2013-05-07 00:20:00,56.9,52.4,29.89,SSW,211,0.0,0.0,85,0.00,,,0.00,Wunderground v.1.15,2013-05-07 04:20:00,
2013-05-07 00:25:00,56.9,52.4,29.89,SSW,211,0.0,0.0,85,0.00,,,0.00,Wunderground v.1.15,2013-05-07 04:25:00,
2013-05-07 00:30:00,56.9,52.4,29.89,SSW,211,0.0,0.0,85,0.00,,,0.00,Wunderground v.1.15,2013-05-07 04:30:00,
2013-05-07 00:40:00,56.9,52.8,29.89,SSW,211,0.0,0.0,86,0.00,,,0.00,Wunderground v.1.15,2013-05-07 04:40:00,
2013-05-07 00:45:00,56.7,52.6,29.89,SSW,211,0.0,0.0,86,0.00,,,0.00,Wunderground v.1.15,2013-05-07 04:45:00,
2013-05-07 00:54:00,56.6,52.5,29.89,SSW,211,0.0,0.0,86,0.00,,,0.00,Wunderground v.1.15,2013-05-07 04:54:00,
2013-05-07 01:00:00,56.5,52.4,29.89,SSW,211,0.0,0.0,86,0.00,,,0.00,Wunderground v.1.15,2013-05-07 05:00:00,
2013-05-07 01:10:00,56.3,52.5,29.89,SSW,211,0.0,0.0,87,0.00,,,0.00,Wunderground v.1.15,2013-05-07 05:10:00,
2013-05-07 01:15:00,56.3,52.5,29.88,SSW,211,0.0,0.0,87,0.00,,,0.00,Wunderground v.1.15,2013-05-07 05:15:00,
2013-05-07 01:25:00,56.3,52.5,29.88,SSW,211,0.0,0.0,87,0.00,,,0.00,Wunderground v.1.15,2013-05-07 05:25:00,
2013-05-07 01:30:00,56.3,52.5,29.89,SSW,211,0.0,0.0,87,0.00,,,0.00,Wunderground v.1.15,2013-05-07 05:30:00,
2013-05-07 01:40:00,56.3,52.8,29.89,SSW,211,0.0,0.0,88,0.00,,,0.00,Wunderground v.1.15,2013-05-07 05:40:00,
2013-05-07 01:45:00,56.3,52.8,29.88,SSW,211,0.0,0.0,88,0.00,,,0.00,Wunderground v.1.15,2013-05-07 05:45:00,
2013-05-07 01:55:00,56.3,52.8,29.88,SSW,211,0.0,0.0,88,0.00,,,0.00,Wunderground v.1.15,2013-05-07 05:55:00,
2013-05-07 02:00:00,56.3,52.8,29.88,SSW,211,0.0,0.0,88,0.00,,,0.00,Wunderground v.1.15,2013-05-07 06:00:00,
2013-05-07 02:10:00,56.6,53.1,29.88,SSW,211,0.0,0.0,88,0.00,,,0.00,Wunderground v.1.15,2013-05-07 06:10:00,
2013-05-07 02:15:00,56.6,52.8,29.87,SSW,211,0.0,0.0,87,0.00,,,0.00,Wunderground v.1.15,2013-05-07 06:15:00,
2013-05-07 02:25:00,56.7,52.6,29.87,SSW,211,0.0,0.0,86,0.00,,,0.00,Wunderground v.1.15,2013-05-07 06:25:00,
2013-05-07 02:30:00,56.7,52.6,29.87,SSW,211,0.0,0.0,86,0.00,,,0.00,Wunderground v.1.15,2013-05-07 06:30:00,
2013-05-07 02:40:00,56.7,52.6,29.87,SSW,211,0.0,0.0,86,0.00,,,0.00,Wunderground v.1.15,2013-05-07 06:40:00,
2013-05-07 02:45:00,56.7,52.6,29.87,SSW,211,0.0,0.0,86,0.00,,,0.00,Wunderground v.1.15,2013-05-07 06:45:00,
2013-05-07 02:55:00,56.9,52.4,29.87,SSW,211,0.0,0.0,85,0.00,,,0.00,Wunderground v.1.15,2013-05-07 06:55:00,
2013-05-07 03:00:00,57.0,52.2,29.86,SSW,211,0.0,0.0,84,0.00,,,0.00,Wunderground v.1.15,2013-05-07 07:00:00,
2013-05-07 03:10:00,57.0,52.2,29.86,SSW,211,0.0,0.0,84,0.00,,,0.00,Wunderground v.1.15,2013-05-07 07:10:00,
2013-05-07 03:15:00,57.0,52.2,29.86,SSW,211,0.0,0.0,84,0.00,,,0.00,Wunderground v.1.15,2013-05-07 07:15:00,
2013-05-07 03:25:00,57.2,52.4,29.86,SSW,211,0.0,0.0,84,0.00,,,0.00,Wunderground v.1.15,2013-05-07 07:25:00,
2013-05-07 03:30:00,57.2,52.4,29.86,SSW,211,0.0,0.0,84,0.00,,,0.00,Wunderground v.1.15,2013-05-07 07:30:00,
2013-05-07 03:40:00,57.3,52.2,29.86,SSW,211,0.0,0.0,83,0.00,,,0.00,Wunderground v.1.15,2013-05-07 07:40:00,
2013-05-07 03:45:00,57.3,52.2,29.87,SSW,211,0.0,0.0,83,0.00,,,0.00,Wunderground v.1.15,2013-05-07 07:45:00,
2013-05-07 03:55:00,57.5,52.4,29.87,SSW,211,0.0,0.0,83,0.00,,,0.00,Wunderground v.1.15,2013-05-07 07:55:00,
2013-05-07 04:00:00,57.5,52.0,29.87,SSW,211,0.0,0.0,82,0.00,,,0.00,Wunderground v.1.15,2013-05-07 08:00:00,
2013-05-07 04:10:00,57.5,52.0,29.87,SSW,211,0.0,0.0,82,0.00,,,0.00,Wunderground v.1.15,2013-05-07 08:10:00,
2013-05-07 04:15:00,57.5,52.4,29.87,SSW,211,0.0,0.0,83,0.00,,,0.00,Wunderground v.1.15,2013-05-07 08:15:00,
2013-05-07 04:25:00,57.5,52.4,29.87,SSW,211,0.0,0.0,83,0.00,,,0.00,Wunderground v.1.15,2013-05-07 08:25:00,
2013-05-07 04:30:00,57.5,52.0,29.87,SW,221,0.0,0.0,82,0.00,,,0.00,Wunderground v.1.15,2013-05-07 08:30:00,
2013-05-07 04:40:00,57.3,51.9,29.87,SW,221,0.0,0.0,82,0.00,,,0.00,Wunderground v.1.15,2013-05-07 08:40:00,
2013-05-07 04:45:00,57.3,51.9,29.86,SW,221,0.0,0.0,82,0.00,,,0.00,Wunderground v.1.15,2013-05-07 08:45:00,
2013-05-07 04:55:00,57.3,52.2,29.86,SW,221,0.0,0.0,83,0.00,,,0.00,Wunderground v.1.15,2013-05-07 08:55:00,
2013-05-07 05:00:00,57.2,52.1,29.86,SW,221,0.0,0.0,83,0.00,,,0.00,Wunderground v.1.15,2013-05-07 09:00:00,
2013-05-07 05:10:00,56.9,51.8,29.86,SW,221,0.0,0.0,83,0.00,,,0.00,Wunderground v.1.15,2013-05-07 09:10:00,
2013-05-07 05:15:00,56.6,51.5,29.86,SW,221,0.0,0.0,83,0.00,,,0.00,Wunderground v.1.15,2013-05-07 09:15:00,
2013-05-07 05:25:00,56.3,51.5,29.86,SW,221,0.0,0.0,84,0.00,,,0.00,Wunderground v.1.15,2013-05-07 09:25:00,
2013-05-07 05:30:00,56.0,51.2,29.86,SW,221,0.0,0.0,84,0.00,,,0.00,Wunderground v.1.15,2013-05-07 09:30:00,
2013-05-07 05:40:00,55.7,51.3,29.86,SW,221,0.0,0.0,85,0.00,,,0.00,Wunderground v.1.15,2013-05-07 09:40:00,
2013-05-07 05:45:00,55.6,51.2,29.86,SW,221,0.0,0.0,85,0.00,,,0.00,Wunderground v.1.15,2013-05-07 09:45:00,
2013-05-07 12:30:00,69.1,56.4,29.89,NNE,12,0.0,3.0,64,0.00,,,0.00,Wunderground v.1.15,2013-05-07 16:30:00,
2013-05-07 12:39:00,69.3,53.9,29.89,NNE,25,1.0,1.0,58,0.00,,,0.00,Wunderground v.1.15,2013-05-07 16:39:00,
2013-05-07 12:45:00,68.9,55.3,29.89,South,184,0.0,1.0,62,0.00,,,0.00,Wunderground v.1.15,2013-05-07 16:45:00,
2013-05-07 12:54:00,67.6,54.1,29.89,NE,46,1.0,1.0,62,0.00,,,0.00,Wunderground v.1.15,2013-05-07 16:54:00,
2013-05-07 13:00:00,67.1,54.1,29.89,NNE,17,1.0,1.0,63,0.00,,,0.00,Wunderground v.1.15,2013-05-07 17:00:00,
2013-05-07 13:10:00,66.9,55.2,29.89,NW,326,0.0,0.0,66,0.00,,,0.00,Wunderground v.1.15,2013-05-07 17:10:00,
2013-05-07 13:15:00,66.8,55.1,29.88,NW,326,0.0,0.0,66,0.00,,,0.00,Wunderground v.1.15,2013-05-07 17:15:00,
2013-05-07 13:25:00,66.9,55.2,29.88,NW,326,0.0,1.0,66,0.00,,,0.01,Wunderground v.1.15,2013-05-07 17:25:00,
2013-05-07 13:30:00,67.1,53.6,29.88,North,9,0.0,0.0,62,0.00,,,0.01,Wunderground v.1.15,2013-05-07 17:30:00,
2013-05-07 13:39:00,66.9,53.9,29.88,NE,44,1.0,1.0,63,0.00,,,0.01,Wunderground v.1.15,2013-05-07 17:39:00,
2013-05-07 13:45:00,66.6,56.1,29.88,NE,44,0.0,1.0,69,0.00,,,0.01,Wunderground v.1.15,2013-05-07 17:45:00,
2013-05-07 13:55:00,65.0,57.6,29.88,NE,44,0.0,0.0,77,0.28,,,0.04,Wunderground v.1.15,2013-05-07 17:55:00,
2013-05-07 14:00:00,63.9,58.0,29.89,NE,44,0.0,0.0,81,0.17,,,0.07,Wunderground v.1.15,2013-05-07 18:00:00,
2013-05-07 14:10:00,62.4,57.5,29.89,NE,44,0.0,0.0,84,0.08,,,0.08,Wunderground v.1.15,2013-05-07 18:10:00,
2013-05-07 14:15:00,62.0,57.8,29.89,NE,44,0.0,0.0,86,0.11,,,0.09,Wunderground v.1.15,2013-05-07 18:15:00,
2013-05-07 14:25:00,61.6,58.0,29.89,NE,44,0.0,0.0,88,0.09,,,0.10,Wunderground v.1.15,2013-05-07 18:25:00,
2013-05-07 14:30:00,62.0,59.0,29.89,NE,44,0.0,0.0,90,0.06,,,0.10,Wunderground v.1.15,2013-05-07 18:30:00,
2013-05-07 14:40:00,63.9,61.2,29.89,NE,36,0.0,0.0,91,0.00,,,0.10,Wunderground v.1.15,2013-05-07 18:40:00,
2013-05-07 14:45:00,64.5,61.8,29.88,North,360,1.0,1.0,91,0.00,,,0.10,Wunderground v.1.15,2013-05-07 18:45:00,
2013-05-07 14:55:00,64.2,60.2,29.88,North,5,0.0,1.0,87,0.00,,,0.10,Wunderground v.1.15,2013-05-07 18:55:00,
2013-05-07 15:00:00,64.2,60.2,29.88,NNE,30,0.0,3.0,87,0.00,,,0.11,Wunderground v.1.15,2013-05-07 19:00:00,
2013-05-07 15:09:00,63.4,59.8,29.88,NNE,22,0.0,0.0,88,0.00,,,0.11,Wunderground v.1.15,2013-05-07 19:09:00,
2013-05-07 15:15:00,63.1,59.5,29.88,North,5,0.0,0.0,88,0.00,,,0.11,Wunderground v.1.15,2013-05-07 19:15:00,
2013-05-07 15:24:00,64.3,61.3,29.88,North,5,0.0,0.0,90,0.00,,,0.12,Wunderground v.1.15,2013-05-07 19:24:00,
2013-05-07 15:30:00,65.0,61.4,29.87,NNE,24,0.0,0.0,88,0.00,,,0.12,Wunderground v.1.15,2013-05-07 19:30:00,
2013-05-07 15:40:00,63.7,59.1,29.87,NNE,24,0.0,0.0,85,0.00,,,0.12,Wunderground v.1.15,2013-05-07 19:40:00,
2013-05-07 15:45:00,63.2,58.9,29.86,NNE,24,0.0,0.0,86,0.00,,,0.12,Wunderground v.1.15,2013-05-07 19:45:00,
2013-05-07 15:55:00,63.2,59.6,29.86,NNE,24,0.0,0.0,88,0.00,,,0.12,Wunderground v.1.15,2013-05-07 19:55:00,
2013-05-07 16:00:00,63.4,59.8,29.86,NNE,24,0.0,0.0,88,0.00,,,0.12,Wunderground v.1.15,2013-05-07 20:00:00,
2013-05-07 16:09:00,63.4,59.8,29.86,NNE,24,0.0,0.0,88,0.00,,,0.12,Wunderground v.1.15,2013-05-07 20:09:00,
2013-05-07 16:15:00,63.1,59.5,29.86,NNE,24,0.0,0.0,88,0.00,,,0.12,Wunderground v.1.15,2013-05-07 20:15:00,
2013-05-07 16:25:00,62.6,59.3,29.86,East,89,0.0,0.0,89,0.32,,,0.14,Wunderground v.1.15,2013-05-07 20:25:00,
2013-05-07 16:30:00,61.5,57.9,29.87,East,101,0.0,0.0,88,0.25,,,0.17,Wunderground v.1.15,2013-05-07 20:30:00,
2013-05-07 16:39:00,60.5,57.2,29.87,East,101,0.0,0.0,89,0.06,,,0.17,Wunderground v.1.15,2013-05-07 20:39:00,
2013-05-07 16:45:00,60.1,56.8,29.87,East,101,0.0,0.0,89,0.04,,,0.17,Wunderground v.1.15,2013-05-07 20:45:00,
2013-05-07 16:54:00,59.8,56.9,29.87,East,101,0.0,0.0,90,0.00,,,0.17,Wunderground v.1.15,2013-05-07 20:54:00,
2013-05-07 17:00:00,59.6,57.0,29.88,East,101,0.0,0.0,91,0.12,,,0.19,Wunderground v.1.15,2013-05-07 21:00:00,
2013-05-07 17:10:00,59.3,56.7,29.88,East,101,0.0,0.0,91,0.09,,,0.20,Wunderground v.1.15,2013-05-07 21:10:00,
2013-05-07 17:15:00,59.2,56.9,29.88,East,101,0.0,0.0,92,0.12,,,0.21,Wunderground v.1.15,2013-05-07 21:15:00,
2013-05-07 17:25:00,59.2,56.9,29.88,East,101,0.0,0.0,92,0.04,,,0.21,Wunderground v.1.15,2013-05-07 21:25:00,
2013-05-07 17:30:00,59.3,57.0,29.87,East,101,0.0,0.0,92,0.00,,,0.21,Wunderground v.1.15,2013-05-07 21:30:00,
2013-05-07 17:40:00,59.9,57.9,29.87,East,101,0.0,0.0,93,0.00,,,0.21,Wunderground v.1.15,2013-05-07 21:40:00,
2013-05-07 17:45:00,60.2,58.2,29.87,East,101,0.0,0.0,93,0.00,,,0.21,Wunderground v.1.15,2013-05-07 21:45:00,
2013-05-07 17:55:00,60.7,58.7,29.87,East,101,0.0,0.0,93,0.00,,,0.21,Wunderground v.1.15,2013-05-07 21:55:00,
2013-05-07 18:00:00,61.0,59.0,29.87,East,101,0.0,0.0,93,0.00,,,0.21,Wunderground v.1.15,2013-05-07 22:00:00,
2013-05-07 18:10:00,61.3,59.0,29.87,East,101,0.0,0.0,92,0.00,,,0.21,Wunderground v.1.15,2013-05-07 22:10:00,
2013-05-07 18:15:00,61.3,59.0,29.87,NNE,23,0.0,0.0,92,0.00,,,0.21,Wunderground v.1.15,2013-05-07 22:15:00,
2013-05-07 18:25:00,61.6,59.3,29.87,NNE,23,0.0,0.0,92,0.00,,,0.21,Wunderground v.1.15,2013-05-07 22:25:00,
2013-05-07 18:30:00,61.6,59.3,29.87,NNE,23,0.0,0.0,92,0.00,,,0.21,Wunderground v.1.15,2013-05-07 22:30:00,
2013-05-07 18:40:00,61.8,59.5,29.87,NNE,23,0.0,0.0,92,0.00,,,0.21,Wunderground v.1.15,2013-05-07 22:40:00,
2013-05-07 18:45:00,61.8,59.5,29.87,NE,35,0.0,0.0,92,0.00,,,0.21,Wunderground v.1.15,2013-05-07 22:45:00,
2013-05-07 18:55:00,62.0,59.6,29.87,SE,128,0.0,2.0,92,0.00,,,0.21,Wunderground v.1.15,2013-05-07 22:55:00,
2013-05-07 19:00:00,62.0,59.6,29.88,SE,128,0.0,0.0,92,0.00,,,0.21,Wunderground v.1.15,2013-05-07 23:00:00,
2013-05-07 19:09:00,62.0,59.3,29.88,SE,128,0.0,0.0,91,0.00,,,0.21,Wunderground v.1.15,2013-05-07 23:09:00,
2013-05-07 19:15:00,61.8,59.1,29.88,SE,128,0.0,0.0,91,0.00,,,0.21,Wunderground v.1.15,2013-05-07 23:15:00,
2013-05-07 19:25:00,61.8,59.1,29.88,SE,128,0.0,0.0,91,0.00,,,0.21,Wunderground v.1.15,2013-05-07 23:25:00,
2013-05-07 19:30:00,61.6,58.9,29.88,SE,128,0.0,0.0,91,0.00,,,0.21,Wunderground v.1.15,2013-05-07 23:30:00,
2013-05-07 19:40:00,60.9,57.6,29.88,WNW,303,0.0,0.0,89,0.00,,,0.21,Wunderground v.1.15,2013-05-07 23:40:00,
2013-05-07 19:45:00,60.5,56.9,29.88,WNW,302,0.0,0.0,88,0.00,,,0.21,Wunderground v.1.15,2013-05-07 23:45:00,
2013-05-07 19:54:00,59.8,56.2,29.88,WNW,302,0.0,0.0,88,0.00,,,0.21,Wunderground v.1.15,2013-05-07 23:54:00,
2013-05-07 20:00:00,59.5,55.9,29.88,WNW,302,0.0,0.0,88,0.00,,,0.21,Wunderground v.1.15,2013-05-08 00:00:00,
2013-05-07 20:05:00,59.3,55.7,29.88,WNW,302,0.0,0.0,88,0.00,,,0.21,Wunderground v.1.15,2013-05-08 00:05:00,
2013-05-07 20:15:00,58.9,55.7,29.88,WNW,302,0.0,0.0,89,0.00,,,0.21,Wunderground v.1.15,2013-05-08 00:15:00,
2013-05-07 20:24:00,58.7,55.8,29.88,WNW,302,0.0,0.0,90,0.00,,,0.21,Wunderground v.1.15,2013-05-08 00:24:00,
2013-05-07 20:30:00,58.6,55.7,29.89,WNW,302,0.0,0.0,90,0.00,,,0.21,Wunderground v.1.15,2013-05-08 00:30:00,
2013-05-07 20:39:00,58.3,55.4,29.89,WNW,302,0.0,0.0,90,0.00,,,0.21,Wunderground v.1.15,2013-05-08 00:39:00,
2013-05-07 20:45:00,58.1,55.2,29.89,WNW,302,0.0,0.0,90,0.00,,,0.21,Wunderground v.1.15,2013-05-08 00:45:00,
2013-05-07 20:54:00,57.8,54.9,29.89,WNW,302,0.0,0.0,90,0.00,,,0.21,Wunderground v.1.15,2013-05-08 00:54:00,
2013-05-07 21:00:00,57.6,55.0,29.88,WNW,302,0.0,0.0,91,0.00,,,0.21,Wunderground v.1.15,2013-05-08 01:00:00,
2013-05-07 21:09:00,57.3,54.7,29.88,WNW,302,0.0,0.0,91,0.00,,,0.21,Wunderground v.1.15,2013-05-08 01:09:00,
2013-05-07 21:15:00,57.2,54.6,29.89,WNW,302,0.0,0.0,91,0.00,,,0.21,Wunderground v.1.15,2013-05-08 01:15:00,
2013-05-07 21:24:00,56.7,54.1,29.89,WNW,302,0.0,0.0,91,0.00,,,0.21,Wunderground v.1.15,2013-05-08 01:24:00,
2013-05-07 21:30:00,56.6,54.0,29.89,WNW,302,0.0,0.0,91,0.00,,,0.21,Wunderground v.1.15,2013-05-08 01:30:00,
2013-05-07 21:39:00,56.6,54.3,29.89,WNW,302,0.0,0.0,92,0.00,,,0.21,Wunderground v.1.15,2013-05-08 01:39:00,
2013-05-07 21:45:00,56.5,54.2,29.89,WNW,302,0.0,0.0,92,0.00,,,0.21,Wunderground v.1.15,2013-05-08 01:45:00,
2013-05-07 21:54:00,56.3,54.0,29.89,WNW,302,0.0,0.0,92,0.00,,,0.21,Wunderground v.1.15,2013-05-08 01:54:00,
2013-05-07 22:00:00,56.2,53.9,29.89,WNW,302,0.0,0.0,92,0.00,,,0.21,Wunderground v.1.15,2013-05-08 02:00:00,
2013-05-07 22:10:00,56.0,53.7,29.89,WNW,302,0.0,0.0,92,0.00,,,0.21,Wunderground v.1.15,2013-05-08 02:10:00,
2013-05-07 22:15:00,55.7,53.4,29.90,WNW,302,0.0,0.0,92,0.00,,,0.21,Wunderground v.1.15,2013-05-08 02:15:00,
2013-05-07 22:25:00,55.6,53.6,29.90,WNW,302,0.0,0.0,93,0.00,,,0.21,Wunderground v.1.15,2013-05-08 02:25:00,
2013-05-07 22:30:00,55.4,53.4,29.90,WNW,302,0.0,0.0,93,0.00,,,0.21,Wunderground v.1.15,2013-05-08 02:30:00,
2013-05-07 22:39:00,55.0,53.0,29.90,WNW,302,0.0,0.0,93,0.00,,,0.21,Wunderground v.1.15,2013-05-08 02:39:00,
2013-05-07 22:45:00,54.8,52.8,29.89,WNW,302,0.0,0.0,93,0.00,,,0.21,Wunderground v.1.15,2013-05-08 02:45:00,
2013-05-07 22:55:00,54.8,52.8,29.89,WNW,302,0.0,0.0,93,0.00,,,0.21,Wunderground v.1.15,2013-05-08 02:55:00,
2013-05-07 23:00:00,54.7,52.7,29.90,WNW,302,0.0,0.0,93,0.00,,,0.21,Wunderground v.1.15,2013-05-08 03:00:00,
2013-05-07 23:10:00,54.4,52.4,29.90,WNW,302,0.0,0.0,93,0.00,,,0.21,Wunderground v.1.15,2013-05-08 03:10:00,
2013-05-07 23:15:00,54.2,52.2,29.90,WNW,302,0.0,0.0,93,0.00,,,0.21,Wunderground v.1.15,2013-05-08 03:15:00,
2013-05-07 23:25:00,54.1,52.4,29.90,WNW,302,0.0,0.0,94,0.00,,,0.21,Wunderground v.1.15,2013-05-08 03:25:00,
2013-05-07 23:30:00,53.9,52.2,29.89,WNW,302,0.0,0.0,94,0.00,,,0.21,Wunderground v.1.15,2013-05-08 03:30:00,
2013-05-07 23:39:00,53.8,52.1,29.89,WNW,302,0.0,0.0,94,0.00,,,0.21,Wunderground v.1.15,2013-05-08 03:39:00,
2013-05-07 23:45:00,53.8,52.1,29.89,WNW,303,0.0,0.0,94,0.00,,,0.21,Wunderground v.1.15,2013-05-08 03:45:00,
2013-05-07 23:55:00,53.5,51.8,29.89,WNW,302,0.0,0.0,94,0.00,,,0.21,Wunderground v.1.15,2013-05-08 03:55:00,